Starlink 1570

operational
NORAD ID: 46059 Int'l Des: 2020-055 Owner: SPXS Country: US Constellation: starlink
LEOCIRCULARSTARLINK_TYPE

关于 Starlink 1570

正在加载描述...

实时位置

正在加载3D地球...

即将过境

高度历史

Altitude vs Time

uPlot chart will show altitude changes over time

两行轨道根数

1 46059U 20055AJ 25351.12055828 .00000647 00000-0 62299-4 0 9992
2 46059 53.0550 127.2893 0001131 85.5309 274.5810 15.06400288296549
Epoch: Dec 17, 2025 • Age: 10 hours

当前状态

高度 547.3 km
速度 7.59 km/s
星下点 8.05°N, 14.9°E
发射日期 Aug 7, 2020
运行时间 5.3 years
类型 internet

技术详情

分类 Payload
质量 260.00 kg
干质量 248.00 kg
总质量 260.00 kg
长度 0.20 m
直径 2.80 m
跨度 9.00 m
形状 Box + pan
制造商 SPXS
平台类型 Starlink
阶段状态 In Orbit
所有者/国家 SPXS/US

大型星座

Loading constellations...